User: anonymous   Login
Location: Rounton
(54.4000°N, 1.3500°W)
Time: 03:34:26
(UTC+01:00)
Language:

COSMOS 2251 DEB - Orbit

View from above orbital plane
View from above orbital plane
View from above satellite
View from above satellite

Ground track
Ground track

The orbit data is extracted from the following two-line orbital elements,

1 33933U 93036EN  22181.47477508  .00000255  00000-0  10574-3 0  9990
2 33933  74.0887 190.9579 0076153 164.6485 195.7001 14.29690762697385
Epoch (UTC): 30 June 2022 11:23:40
Eccentricity: 0.0076153
inclination: 74.0887°
perigee height: 738 km
apogee height: 847 km
right ascension of ascending node: 190.9579°
argument of perigee: 164.6485°
revolutions per day: 14.29690762
mean anomaly at epoch: 195.7001°
orbit number at epoch: 69738

The dashed part of the orbit path shows where the satellite is in the earth's shadow,  

DLR